Location: Central Falls
(41.8900°N, 71.3929°W)
Time: 13:12:39
(UTC+00:00)

Courier 1B Rocket - Pass Details

Date: 08 December 2023
Orbit: 920 x 1202 km, 28.2° (Epoch: 01 March)

Event Time Altitude Azimuth Distance (km) Brightness Sun altitude
Rises 20:18:18 0° 252° (WSW) 3,614 9.4 7.7°
Reaches altitude 10° 20:23:05 10° 221° (SW) 2,624 9.7 7.0°
Maximum altitude 20:25:01 11° 203° (SSW) 2,507 8.4 6.7°
Drops below altitude 10° 20:26:56 10° 185° (S) 2,603 8.0 6.4°
Sets 20:31:38 0° 153° (SSE) 3,539 8.1 5.7°
